| time (UTC) | temp F | wind direction | speed MPH | gust MPH | rain 1hr in | rain 24hr in | rain mn in | humidity % | barometer mb |
| 20260508175404 | 71 | 261 | 4.0 | 9.0 | 0.00 | 0.00 | 0.00 | 48 | 1014.6 |
| 20260508174404 | 70 | 152 | 7.0 | 12.0 | 0.00 | 0.00 | 0.00 | 47 | 1015.0 |
| 20260508173904 | 70 | 164 | 4.0 | 13.0 | 0.00 | 0.00 | 0.00 | 47 | 1015.1 |
| 20260508173404 | 70 | 175 | 7.0 | 12.0 | 0.00 | 0.00 | 0.00 | 45 | 1015.1 |
| 20260508172905 | 70 | 207 | 6.0 | 10.0 | 0.00 | 0.00 | 0.00 | 48 | 1015.2 |
| 20260508172404 | 70 | 212 | 5.0 | 12.0 | 0.00 | 0.00 | 0.00 | 46 | 1015.2 |
| 20260508171904 | 70 | 219 | 4.0 | 15.0 | 0.00 | 0.00 | 0.00 | 48 | 1015.3 |
| 20260508171404 | 69 | 139 | 6.0 | 10.0 | 0.00 | 0.00 | 0.00 | 46 | 1015.4 |
| 20260508170904 | 69 | 193 | 7.0 | 12.0 | 0.00 | 0.00 | 0.00 | 46 | 1015.6 |
| 20260508170405 | 69 | 191 | 7.0 | 12.0 | 0.00 | 0.00 | 0.00 | 43 | 1015.7 |
| 20260508165904 | 69 | 197 | 6.0 | 12.0 | 0.00 | 0.00 | 0.00 | 45 | 1015.8 |
| 20260508165404 | 69 | 184 | 5.0 | 12.0 | 0.00 | 0.00 | 0.00 | 47 | 1015.9 |
| 20260508164904 | 69 | 149 | 6.0 | 13.0 | 0.00 | 0.00 | 0.00 | 45 | 1015.9 |
| 20260508164404 | 69 | 182 | 4.0 | 9.0 | 0.00 | 0.00 | 0.00 | 45 | 1015.9 |
| 20260508163904 | 69 | 140 | 5.0 | 12.0 | 0.00 | 0.00 | 0.00 | 48 | 1016.0 |
| 20260508162904 | 68 | 178 | 4.0 | 8.0 | 0.00 | 0.00 | 0.00 | 46 | 1016.1 |
| 20260508161904 | 68 | 148 | 5.0 | 13.0 | 0.00 | 0.00 | 0.00 | 48 | 1016.4 |
| 20260508155904 | 67 | 173 | 5.0 | 9.0 | 0.00 | 0.00 | 0.00 | 50 | 1016.6 |
| 20260508155404 | 67 | 225 | 4.0 | 9.0 | 0.00 | 0.00 | 0.00 | 48 | 1016.7 |
| 20260508154904 | 67 | 178 | 6.0 | 10.0 | 0.00 | 0.00 | 0.00 | 52 | 1016.7 |
| 20260508154404 | 66 | 200 | 6.0 | 12.0 | 0.00 | 0.00 | 0.00 | 53 | 1016.8 |
| 20260508153904 | 66 | 182 | 5.0 | 8.0 | 0.00 | 0.00 | 0.00 | 53 | 1016.7 |
| 20260508153404 | 66 | 202 | 4.0 | 10.0 | 0.00 | 0.00 | 0.00 | 53 | 1016.7 |
| 20260508152904 | 66 | 203 | 6.0 | 10.0 | 0.00 | 0.00 | 0.00 | 53 | 1016.8 |
| 20260508152405 | 66 | 241 | 5.0 | 8.0 | 0.00 | 0.00 | 0.00 | 52 | 1016.8 |
| 20260508150904 | 65 | 180 | 5.0 | 12.0 | 0.00 | 0.00 | 0.00 | 54 | 1017.0 |
| 20260508150404 | 65 | 184 | 5.0 | 12.0 | 0.00 | 0.00 | 0.00 | 55 | 1017.1 |
| 20260508145904 | 64 | 207 | 6.0 | 9.0 | 0.00 | 0.00 | 0.00 | 54 | 1017.1 |
| 20260508145404 | 64 | 215 | 6.0 | 12.0 | 0.00 | 0.00 | 0.00 | 56 | 1017.0 |
| 20260508144904 | 64 | 200 | 6.0 | 12.0 | 0.00 | 0.00 | 0.00 | 55 | 1017.1 |
| 20260508144404 | 64 | 193 | 5.0 | 10.0 | 0.00 | 0.00 | 0.00 | 59 | 1017.0 |
| 20260508143904 | 63 | 201 | 4.0 | 8.0 | 0.00 | 0.00 | 0.00 | 58 | 1017.1 |
| 20260508143404 | 64 | 196 | 4.0 | 8.0 | 0.00 | 0.00 | 0.00 | 58 | 1017.1 |
| 20260508142904 | 63 | 195 | 5.0 | 9.0 | 0.00 | 0.00 | 0.00 | 58 | 1017.3 |
| 20260508142404 | 63 | 195 | 5.0 | 12.0 | 0.00 | 0.00 | 0.00 | 60 | 1017.3 |
| 20260508141904 | 62 | 183 | 5.0 | 13.0 | 0.00 | 0.00 | 0.00 | 59 | 1017.4 |
| 20260508140404 | 61 | 171 | 5.0 | 14.0 | 0.00 | 0.00 | 0.00 | 61 | 1017.4 |
| 20260508135904 | 61 | 175 | 3.0 | 14.0 | 0.00 | 0.00 | 0.00 | 61 | 1017.5 |
| 20260508135404 | 60 | 161 | 5.0 | 10.0 | 0.00 | 0.00 | 0.00 | 63 | 1017.5 |
| 20260508134904 | 60 | 198 | 4.0 | 10.0 | 0.00 | 0.00 | 0.00 | 65 | 1017.6 |
| 20260508134404 | 60 | 194 | 3.0 | 12.0 | 0.00 | 0.00 | 0.00 | 67 | 1017.7 |
| 20260508133904 | 59 | 161 | 3.0 | 6.0 | 0.00 | 0.00 | 0.00 | 68 | 1017.8 |
| 20260508133404 | 58 | 170 | 5.0 | 8.0 | 0.00 | 0.00 | 0.00 | 67 | 1017.8 |
| 20260508132904 | 58 | 172 | 5.0 | 12.0 | 0.00 | 0.00 | 0.00 | 68 | 1017.8 |
| 20260508132404 | 58 | 170 | 3.0 | 10.0 | 0.00 | 0.00 | 0.00 | 69 | 1017.7 |
| 20260508131904 | 57 | 114 | 4.0 | 8.0 | 0.00 | 0.00 | 0.00 | 69 | 1017.7 |
| 20260508130904 | 56 | 141 | 5.0 | 9.0 | 0.00 | 0.00 | 0.00 | 70 | 1017.7 |
| 20260508130404 | 56 | 142 | 5.0 | 8.0 | 0.00 | 0.00 | 0.00 | 71 | 1017.6 |
| 20260508125904 | 55 | 181 | 4.0 | 10.0 | 0.00 | 0.00 | 0.00 | 71 | 1017.7 |
| 20260508125404 | 55 | 137 | 5.0 | 10.0 | 0.00 | 0.00 | 0.00 | 72 | 1017.7 |
| 20260508124904 | 54 | 150 | 2.0 | 7.0 | 0.00 | 0.00 | 0.00 | 75 | 1017.7 |
| 20260508124404 | 54 | 155 | 3.0 | 9.0 | 0.00 | 0.00 | 0.00 | 76 | 1017.7 |
| 20260508123904 | 53 | 162 | 3.0 | 5.0 | 0.00 | 0.00 | 0.00 | 77 | 1017.7 |
| 20260508123404 | 53 | 148 | 2.0 | 3.0 | 0.00 | 0.00 | 0.00 | 78 | 1017.7 |
| 20260508122903 | 52 | 115 | 2.0 | 3.0 | 0.00 | 0.00 | 0.00 | 80 | 1017.8 |
| 20260508122404 | 51 | 124 | 2.0 | 3.0 | 0.00 | 0.00 | 0.00 | 81 | 1017.7 |
| 20260508121904 | 50 | 125 | 2.0 | 3.0 | 0.00 | 0.00 | 0.00 | 83 | 1017.6 |
| 20260508121404 | 50 | 124 | 1.0 | 3.0 | 0.00 | 0.00 | 0.00 | 85 | 1017.6 |
| 20260508120904 | 49 | 124 | 1.0 | 2.0 | 0.00 | 0.00 | 0.00 | 87 | 1017.6 |
| 20260508120404 | 48 | 124 | 2.0 | 3.0 | 0.00 | 0.00 | 0.00 | 88 | 1017.5 |
| 20260508115904 | 47 | 123 | 1.0 | 2.0 | 0.00 | 0.00 | 0.00 | 89 | 1017.4 |
| 20260508115404 | 46 | 110 | 1.0 | 2.0 | 0.00 | 0.00 | 0.00 | 89 | 1017.3 |
| 20260508114404 | 46 | 110 | 0.0 | 1.0 | 0.00 | 0.00 | 0.00 | 90 | 1017.2 |
| 20260508113904 | 45 | 178 | 0.0 | 1.0 | 0.00 | 0.00 | 0.00 | 90 | 1017.2 |
| 20260508113404 | 45 | 178 | 0.0 | 1.0 | 0.00 | 0.00 | 0.00 | 91 | 1017.1 |
| 20260508112904 | 44 | 218 | 1.0 | 2.0 | 0.00 | 0.00 | 0.00 | 91 | 1017.0 |
| 20260508111903 | 43 | 211 | 2.0 | 3.0 | 0.00 | 0.00 | 0.00 | 91 | 1016.8 |
| 20260508111404 | 43 | 126 | 1.0 | 2.0 | 0.00 | 0.00 | 0.00 | 92 | 1016.9 |
| 20260508110405 | 42 | 55 | 1.0 | 2.0 | 0.00 | 0.00 | 0.00 | 91 | 1016.9 |
| 20260508105404 | 42 | 71 | 1.0 | 2.0 | 0.00 | 0.00 | 0.00 | 92 | 1016.7 |
| 20260508104904 | 42 | 71 | 1.0 | 2.0 | 0.00 | 0.00 | 0.00 | 91 | 1016.8 |
| 20260508104404 | 41 | 71 | 1.0 | 1.0 | 0.00 | 0.00 | 0.00 | 91 | 1016.9 |
| 20260508103903 | 41 | 71 | 0.0 | 0.0 | 0.00 | 0.00 | 0.00 | 91 | 1016.9 |
| 20260508103404 | 42 | 71 | 0.0 | 0.0 | 0.00 | 0.00 | 0.00 | 91 | 1016.9 |
| 20260508102904 | 42 | 71 | 0.0 | 1.0 | 0.00 | 0.00 | 0.00 | 91 | 1016.8 |
| 20260508102404 | 42 | 71 | 0.0 | 1.0 | 0.00 | 0.00 | 0.00 | 91 | 1016.9 |
| 20260508101904 | 42 | 71 | 0.0 | 1.0 | 0.00 | 0.00 | 0.00 | 91 | 1016.8 |
| 20260508101404 | 42 | 71 | 0.0 | 0.0 | 0.00 | 0.00 | 0.00 | 91 | 1016.7 |
| 20260508100404 | 42 | 71 | 0.0 | 0.0 | 0.00 | 0.00 | 0.00 | 91 | 1016.6 |
| 20260508095904 | 42 | 71 | 0.0 | 1.0 | 0.00 | 0.00 | 0.00 | 91 | 1016.6 |
| 20260508095404 | 42 | 71 | 0.0 | 1.0 | 0.00 | 0.00 | 0.00 | 91 | 1016.7 |
| 20260508094903 | 43 | 71 | 0.0 | 0.0 | 0.00 | 0.00 | 0.00 | 91 | 1016.7 |
| 20260508093904 | 43 | 71 | 0.0 | 1.0 | 0.00 | 0.00 | 0.00 | 91 | 1016.6 |
| 20260508093404 | 43 | 71 | 0.0 | 2.0 | 0.00 | 0.00 | 0.00 | 91 | 1016.5 |
| 20260508092904 | 43 | 71 | 1.0 | 2.0 | 0.00 | 0.00 | 0.00 | 91 | 1016.6 |
| 20260508092404 | 43 | 71 | 1.0 | 2.0 | 0.00 | 0.00 | 0.00 | 91 | 1016.5 |
| 20260508091904 | 43 | 71 | 1.0 | 2.0 | 0.00 | 0.00 | 0.00 | 91 | 1016.5 |
| 20260508091404 | 43 | 71 | 1.0 | 3.0 | 0.00 | 0.00 | 0.00 | 91 | 1016.4 |
| 20260508090904 | 43 | 71 | 0.0 | 2.0 | 0.00 | 0.00 | 0.00 | 91 | 1016.4 |
| 20260508090405 | 43 | 71 | 1.0 | 2.0 | 0.00 | 0.00 | 0.00 | 91 | 1016.4 |
| 20260508085904 | 43 | 71 | 1.0 | 2.0 | 0.00 | 0.00 | 0.00 | 91 | 1016.3 |
| 20260508085404 | 43 | 71 | 1.0 | 2.0 | 0.00 | 0.00 | 0.00 | 91 | 1016.3 |
| 20260508084404 | 43 | 71 | 0.0 | 1.0 | 0.00 | 0.00 | 0.00 | 91 | 1016.4 |
| 20260508082903 | 44 | 71 | 1.0 | 2.0 | 0.00 | 0.00 | 0.00 | 91 | 1016.4 |
| 20260508082404 | 44 | 71 | 0.0 | 0.0 | 0.00 | 0.00 | 0.00 | 91 | 1016.4 |
| 20260508081904 | 44 | 71 | 1.0 | 3.0 | 0.00 | 0.00 | 0.00 | 91 | 1016.5 |
| 20260508081404 | 44 | 354 | 1.0 | 2.0 | 0.00 | 0.00 | 0.00 | 91 | 1016.5 |
| 20260508080904 | 44 | 350 | 0.0 | 0.0 | 0.00 | 0.00 | 0.00 | 91 | 1016.5 |
| 20260508080403 | 44 | 350 | 0.0 | 0.0 | 0.00 | 0.00 | 0.00 | 91 | 1016.5 |
| 20260508075903 | 44 | 350 | 0.0 | 0.0 | 0.00 | 0.00 | 0.00 | 91 | 1016.6 |
| 20260508075405 | 44 | 350 | 0.0 | 0.0 | 0.00 | 0.00 | 0.00 | 91 | 1016.6 |
| 20260508074903 | 44 | 350 | 0.0 | 0.0 | 0.00 | 0.00 | 0.00 | 91 | 1016.5 |
| 20260508074404 | 45 | 350 | 0.0 | 0.0 | 0.00 | 0.00 | 0.00 | 91 | 1016.5 |
| 20260508073904 | 45 | 355 | 0.0 | 0.0 | 0.00 | 0.00 | 0.00 | 91 | 1016.6 |
| 20260508072904 | 45 | 355 | 0.0 | 0.0 | 0.00 | 0.00 | 0.00 | 91 | 1016.7 |
| 20260508072404 | 45 | 355 | 0.0 | 0.0 | 0.00 | 0.00 | 0.00 | 91 | 1016.7 |
| 20260508071904 | 45 | 355 | 0.0 | 0.0 | 0.00 | 0.00 | 0.00 | 91 | 1016.6 |
| 20260508071404 | 45 | 355 | 0.0 | 0.0 | 0.00 | 0.00 | 0.00 | 91 | 1016.8 |
| 20260508070904 | 45 | 355 | 0.0 | 0.0 | 0.00 | 0.00 | 0.00 | 91 | 1016.9 |
| 20260508070404 | 46 | 355 | 0.0 | 0.0 | 0.00 | 0.00 | 0.00 | 91 | 1017.0 |
| 20260508065904 | 46 | 355 | 0.0 | 0.0 | 0.00 | 0.00 | 0.00 | 91 | 1017.0 |
| 20260508065404 | 45 | 355 | 0.0 | 1.0 | 0.00 | 0.00 | 0.00 | 91 | 1017.1 |
| 20260508064904 | 45 | 355 | 0.0 | 0.0 | 0.00 | 0.00 | 0.00 | 91 | 1017.1 |
| 20260508064404 | 45 | 355 | 0.0 | 0.0 | 0.00 | 0.00 | 0.00 | 91 | 1017.1 |
| 20260508063404 | 46 | 355 | 0.0 | 1.0 | 0.00 | 0.00 | 0.00 | 91 | 1017.2 |
| 20260508062904 | 46 | 355 | 0.0 | 1.0 | 0.00 | 0.00 | 0.00 | 90 | 1017.2 |
| 20260508062404 | 46 | 355 | 0.0 | 0.0 | 0.00 | 0.00 | 0.00 | 90 | 1017.3 |
| 20260508061903 | 46 | 355 | 0.0 | 0.0 | 0.00 | 0.00 | 0.00 | 90 | 1017.2 |
| 20260508060404 | 46 | 355 | 0.0 | 0.0 | 0.00 | 0.00 | 0.00 | 90 | 1017.3 |
| 20260508055904 | 46 | 355 | 0.0 | 0.0 | 0.00 | 0.00 | 0.00 | 90 | 1017.3 |
| 20260508055404 | 47 | 355 | 0.0 | 1.0 | 0.00 | 0.00 | 0.00 | 90 | 1017.4 |
| 20260508054904 | 47 | 355 | 0.0 | 2.0 | 0.00 | 0.00 | 0.00 | 90 | 1017.3 |
| 20260508053904 | 47 | 355 | 0.0 | 0.0 | 0.00 | 0.00 | 0.00 | 90 | 1017.2 |
| 20260508053404 | 47 | 355 | 0.0 | 0.0 | 0.00 | 0.00 | 0.00 | 90 | 1017.3 |
| 20260508052904 | 47 | 355 | 0.0 | 0.0 | 0.00 | 0.00 | 0.00 | 89 | 1017.2 |
| 20260508052404 | 47 | 355 | 0.0 | 0.0 | 0.00 | 0.00 | 0.00 | 89 | 1017.1 |
| 20260508051904 | 47 | 355 | 0.0 | 0.0 | 0.00 | 0.00 | 0.00 | 89 | 1017.4 |
| 20260508051404 | 47 | 355 | 0.0 | 1.0 | 0.00 | 0.00 | 0.00 | 89 | 1017.4 |
| 20260508050404 | 47 | 355 | 1.0 | 2.0 | 0.00 | 0.00 | 0.00 | 89 | 1017.3 |
| 20260508045904 | 47 | 355 | 0.0 | 0.0 | 0.00 | 0.00 | 0.00 | 89 | 1017.2 |
| 20260508045404 | 48 | 355 | 0.0 | 1.0 | 0.00 | 0.00 | 0.00 | 89 | 1017.2 |
| 20260508044904 | 48 | 355 | 0.0 | 0.0 | 0.00 | 0.00 | 0.00 | 89 | 1017.2 |
| 20260508044404 | 48 | 355 | 0.0 | 0.0 | 0.00 | 0.00 | 0.00 | 88 | 1017.3 |
| 20260508043904 | 48 | 355 | 0.0 | 0.0 | 0.00 | 0.00 | 0.00 | 89 | 1017.4 |
| 20260508043404 | 48 | 355 | 0.0 | 1.0 | 0.00 | 0.00 | 0.00 | 88 | 1017.3 |
| 20260508042904 | 48 | 355 | 0.0 | 0.0 | 0.00 | 0.00 | 0.00 | 88 | 1017.2 |
| 20260508042404 | 48 | 355 | 0.0 | 0.0 | 0.00 | 0.00 | 0.00 | 88 | 1017.2 |
| 20260508041904 | 48 | 355 | 0.0 | 0.0 | 0.00 | 0.00 | 0.00 | 87 | 1017.2 |
| 20260508041404 | 48 | 355 | 0.0 | 0.0 | 0.00 | 0.00 | 0.00 | 87 | 1017.1 |
| 20260508040904 | 49 | 355 | 0.0 | 0.0 | 0.00 | 0.00 | 0.00 | 87 | 1017.2 |
| 20260508040404 | 49 | 355 | 0.0 | 0.0 | 0.00 | 0.00 | 0.00 | 87 | 1017.1 |
| 20260508035904 | 49 | 355 | 0.0 | 1.0 | 0.00 | 0.00 | 0.00 | 86 | 1017.2 |
| 20260508035404 | 49 | 355 | 0.0 | 1.0 | 0.00 | 0.00 | 0.00 | 86 | 1017.4 |
| 20260508034904 | 49 | 355 | 0.0 | 0.0 | 0.00 | 0.00 | 0.00 | 86 | 1017.4 |
| 20260508034404 | 49 | 355 | 0.0 | 0.0 | 0.00 | 0.00 | 0.00 | 85 | 1017.5 |
| 20260508033904 | 49 | 355 | 0.0 | 1.0 | 0.00 | 0.00 | 0.00 | 85 | 1017.6 |
| 20260508032404 | 50 | 355 | 1.0 | 2.0 | 0.00 | 0.00 | 0.00 | 84 | 1017.6 |
| 20260508031903 | 50 | 355 | 0.0 | 0.0 | 0.00 | 0.00 | 0.00 | 83 | 1017.6 |
| 20260508031404 | 50 | 355 | 0.0 | 0.0 | 0.00 | 0.00 | 0.00 | 83 | 1017.6 |
| 20260508030903 | 51 | 355 | 0.0 | 0.0 | 0.00 | 0.00 | 0.00 | 82 | 1017.6 |
| 20260508030403 | 51 | 355 | 0.0 | 0.0 | 0.00 | 0.00 | 0.00 | 82 | 1017.6 |
| 20260508025904 | 51 | 355 | 0.0 | 0.0 | 0.00 | 0.00 | 0.00 | 82 | 1017.4 |
| 20260508025404 | 51 | 355 | 0.0 | 0.0 | 0.00 | 0.00 | 0.00 | 81 | 1017.5 |
| 20260508024403 | 51 | 355 | 0.0 | 0.0 | 0.00 | 0.00 | 0.00 | 80 | 1017.4 |
| 20260508023904 | 52 | 355 | 0.0 | 0.0 | 0.00 | 0.00 | 0.00 | 80 | 1017.3 |
| 20260508023404 | 52 | 355 | 0.0 | 0.0 | 0.00 | 0.00 | 0.00 | 79 | 1017.3 |
| 20260508022904 | 52 | 355 | 0.0 | 0.0 | 0.00 | 0.00 | 0.00 | 79 | 1017.2 |
| 20260508022404 | 52 | 355 | 0.0 | 1.0 | 0.00 | 0.00 | 0.00 | 78 | 1017.1 |
| 20260508021904 | 53 | 355 | 0.0 | 0.0 | 0.00 | 0.00 | 0.00 | 76 | 1017.0 |
| 20260508021403 | 53 | 355 | 0.0 | 0.0 | 0.00 | 0.00 | 0.00 | 75 | 1016.9 |
| 20260508020903 | 54 | 355 | 0.0 | 1.0 | 0.00 | 0.00 | 0.00 | 74 | 1016.8 |
| 20260508020403 | 54 | 355 | 0.0 | 1.0 | 0.00 | 0.00 | 0.00 | 74 | 1016.6 |
| 20260508015904 | 54 | 355 | 1.0 | 1.0 | 0.00 | 0.00 | 0.00 | 73 | 1016.6 |
| 20260508015403 | 54 | 355 | 1.0 | 1.0 | 0.00 | 0.00 | 0.00 | 73 | 1016.5 |
| 20260508014903 | 55 | 355 | 0.0 | 0.0 | 0.00 | 0.00 | 0.00 | 73 | 1016.7 |
| 20260508014403 | 55 | 355 | 0.0 | 0.0 | 0.00 | 0.00 | 0.00 | 73 | 1016.9 |
| 20260508013904 | 55 | 355 | 0.0 | 0.0 | 0.00 | 0.00 | 0.00 | 73 | 1016.7 |
| 20260508013404 | 55 | 355 | 0.0 | 0.0 | 0.00 | 0.00 | 0.00 | 72 | 1016.6 |
| 20260508012904 | 55 | 355 | 0.0 | 0.0 | 0.00 | 0.00 | 0.00 | 71 | 1016.5 |
| 20260508012404 | 56 | 355 | 0.0 | 0.0 | 0.00 | 0.00 | 0.00 | 69 | 1016.4 |
| 20260508010904 | 57 | 355 | 0.0 | 0.0 | 0.00 | 0.01 | 0.00 | 65 | 1016.5 |
| 20260508010404 | 57 | 355 | 0.0 | 0.0 | 0.00 | 0.01 | 0.00 | 64 | 1016.5 |
| 20260508005904 | 58 | 355 | 0.0 | 0.0 | 0.00 | 0.01 | 0.00 | 63 | 1016.5 |
| 20260508005403 | 58 | 355 | 0.0 | 1.0 | 0.00 | 0.01 | 0.00 | 62 | 1016.4 |
| 20260508004904 | 59 | 355 | 0.0 | 0.0 | 0.00 | 0.01 | 0.00 | 60 | 1016.3 |
| 20260508003904 | 60 | 355 | 0.0 | 1.0 | 0.00 | 0.01 | 0.00 | 57 | 1016.0 |
| 20260508003404 | 61 | 355 | 0.0 | 2.0 | 0.00 | 0.01 | 0.00 | 56 | 1016.0 |
| 20260508002904 | 62 | 355 | 1.0 | 2.0 | 0.00 | 0.01 | 0.00 | 54 | 1015.9 |
| 20260508002404 | 62 | 355 | 1.0 | 2.0 | 0.00 | 0.01 | 0.00 | 52 | 1015.8 |
| 20260508001904 | 62 | 355 | 1.0 | 3.0 | 0.00 | 0.01 | 0.00 | 51 | 1015.7 |
| 20260508001404 | 62 | 355 | 1.0 | 2.0 | 0.00 | 0.01 | 0.00 | 52 | 1015.7 |
| 20260508000405 | 63 | 355 | 1.0 | 3.0 | 0.00 | 0.02 | 0.00 | 49 | 1015.6 |
| 20260507235904 | 63 | 355 | 2.0 | 3.0 | 0.00 | 0.02 | 0.00 | 49 | 1015.6 |
| 20260507235404 | 63 | 355 | 3.0 | 5.0 | 0.00 | 0.02 | 0.00 | 48 | 1015.6 |
| 20260507233904 | 64 | 312 | 3.0 | 7.0 | 0.00 | 0.02 | 0.00 | 49 | 1015.7 |
| 20260507233403 | 64 | 317 | 3.0 | 7.0 | 0.00 | 0.02 | 0.00 | 48 | 1015.7 |
| 20260507232904 | 64 | 336 | 5.0 | 8.0 | 0.00 | 0.02 | 0.00 | 47 | 1015.7 |
| 20260507232403 | 65 | 301 | 3.0 | 6.0 | 0.00 | 0.02 | 0.00 | 47 | 1015.7 |
| 20260507231404 | 65 | 286 | 1.0 | 5.0 | 0.00 | 0.02 | 0.00 | 46 | 1015.6 |
| 20260507230904 | 65 | 318 | 4.0 | 6.0 | 0.00 | 0.02 | 0.00 | 46 | 1015.5 |
| 20260507230404 | 65 | 0 | 3.0 | 5.0 | 0.00 | 0.02 | 0.00 | 47 | 1015.5 |
| 20260507225904 | 65 | 309 | 1.0 | 2.0 | 0.00 | 0.02 | 0.00 | 47 | 1015.7 |
| 20260507225405 | 66 | 309 | 1.0 | 5.0 | 0.00 | 0.02 | 0.00 | 45 | 1015.7 |
| 20260507224904 | 66 | 309 | 2.0 | 7.0 | 0.00 | 0.02 | 0.00 | 46 | 1015.8 |
| 20260507224404 | 66 | 299 | 3.0 | 7.0 | 0.00 | 0.02 | 0.00 | 45 | 1015.7 |
| 20260507223904 | 66 | 275 | 4.0 | 8.0 | 0.00 | 0.02 | 0.00 | 45 | 1015.7 |
| 20260507223404 | 66 | 312 | 5.0 | 8.0 | 0.00 | 0.02 | 0.00 | 45 | 1015.7 |
| 20260507222904 | 66 | 355 | 2.0 | 7.0 | 0.00 | 0.02 | 0.00 | 46 | 1015.8 |
| 20260507222403 | 67 | 318 | 4.0 | 9.0 | 0.00 | 0.02 | 0.00 | 46 | 1015.8 |
| 20260507221903 | 67 | 353 | 5.0 | 12.0 | 0.00 | 0.02 | 0.00 | 46 | 1015.8 |
| 20260507221404 | 66 | 285 | 7.0 | 12.0 | 0.00 | 0.02 | 0.00 | 45 | 1015.8 |
| 20260507220904 | 67 | 299 | 3.0 | 8.0 | 0.00 | 0.02 | 0.00 | 44 | 1015.8 |
| 20260507220403 | 66 | 340 | 1.0 | 5.0 | 0.00 | 0.02 | 0.00 | 46 | 1015.7 |
| 20260507215903 | 67 | 285 | 3.0 | 6.0 | 0.00 | 0.02 | 0.00 | 45 | 1015.8 |
| 20260507215404 | 66 | 286 | 3.0 | 9.0 | 0.00 | 0.02 | 0.00 | 47 | 1015.8 |
| 20260507214903 | 66 | 309 | 2.0 | 9.0 | 0.00 | 0.02 | 0.00 | 45 | 1015.8 |
| 20260507214404 | 67 | 300 | 3.0 | 8.0 | 0.00 | 0.03 | 0.00 | 46 | 1015.7 |
| 20260507213904 | 67 | 318 | 6.0 | 10.0 | 0.00 | 0.03 | 0.00 | 46 | 1015.7 |
| 20260507212905 | 67 | 356 | 6.0 | 10.0 | 0.00 | 0.03 | 0.00 | 46 | 1015.8 |
| 20260507212403 | 67 | 47 | 2.0 | 5.0 | 0.00 | 0.03 | 0.00 | 46 | 1015.8 |
| 20260507211404 | 67 | 290 | 4.0 | 8.0 | 0.00 | 0.04 | 0.00 | 46 | 1015.9 |
| 20260507210904 | 66 | 329 | 4.0 | 12.0 | 0.00 | 0.04 | 0.00 | 45 | 1016.0 |
| 20260507205904 | 67 | 27 | 3.0 | 5.0 | 0.00 | 0.04 | 0.00 | 46 | 1016.1 |
| 20260507205404 | 67 | 265 | 5.0 | 9.0 | 0.00 | 0.05 | 0.00 | 47 | 1016.0 |
| 20260507204903 | 68 | 328 | 4.0 | 9.0 | 0.00 | 0.06 | 0.00 | 49 | 1016.1 |
| 20260507204403 | 67 | 314 | 5.0 | 10.0 | 0.00 | 0.07 | 0.00 | 44 | 1016.1 |
| 20260507203904 | 67 | 248 | 2.0 | 8.0 | 0.00 | 0.07 | 0.00 | 46 | 1016.1 |
| 20260507203404 | 66 | 300 | 2.0 | 6.0 | 0.00 | 0.07 | 0.00 | 47 | 1016.1 |
| 20260507202904 | 66 | 296 | 5.0 | 8.0 | 0.00 | 0.07 | 0.00 | 46 | 1016.2 |
| 20260507202404 | 67 | 334 | 2.0 | 6.0 | 0.00 | 0.07 | 0.00 | 46 | 1016.2 |
| 20260507201904 | 66 | 338 | 3.0 | 8.0 | 0.00 | 0.07 | 0.00 | 45 | 1016.3 |
| 20260507201405 | 67 | 306 | 6.0 | 10.0 | 0.00 | 0.07 | 0.00 | 48 | 1016.4 |
| 20260507200904 | 67 | 292 | 5.0 | 12.0 | 0.00 | 0.07 | 0.00 | 48 | 1016.5 |
| 20260507200405 | 66 | 310 | 4.0 | 10.0 | 0.00 | 0.07 | 0.00 | 46 | 1016.4 |
| 20260507195905 | 66 | 326 | 4.0 | 10.0 | 0.00 | 0.07 | 0.00 | 47 | 1016.3 |
| 20260507195405 | 66 | 273 | 5.0 | 12.0 | 0.00 | 0.07 | 0.00 | 47 | 1016.3 |
| 20260507194905 | 66 | 301 | 5.0 | 10.0 | 0.00 | 0.07 | 0.00 | 48 | 1016.4 |
| 20260507194404 | 67 | 280 | 6.0 | 12.0 | 0.00 | 0.07 | 0.00 | 46 | 1016.6 |
| 20260507193905 | 66 | 315 | 5.0 | 13.0 | 0.00 | 0.07 | 0.00 | 49 | 1016.6 |
| 20260507193405 | 66 | 329 | 6.0 | 12.0 | 0.00 | 0.07 | 0.00 | 47 | 1016.6 |
| 20260507192905 | 66 | 322 | 3.0 | 12.0 | 0.00 | 0.07 | 0.00 | 47 | 1016.7 |
| 20260507192404 | 66 | 358 | 4.0 | 12.0 | 0.00 | 0.07 | 0.00 | 49 | 1016.7 |
| 20260507191905 | 66 | 352 | 6.0 | 13.0 | 0.00 | 0.07 | 0.00 | 49 | 1016.6 |
| 20260507191405 | 65 | 272 | 2.0 | 10.0 | 0.00 | 0.07 | 0.00 | 48 | 1016.6 |
| 20260507190905 | 65 | 320 | 3.0 | 8.0 | 0.00 | 0.07 | 0.00 | 48 | 1016.7 |
| 20260507185904 | 66 | 15 | 2.0 | 8.0 | 0.00 | 0.07 | 0.00 | 52 | 1016.7 |
| 20260507185405 | 66 | 325 | 5.0 | 10.0 | 0.00 | 0.07 | 0.00 | 49 | 1016.7 |
| 20260507184905 | 65 | 289 | 1.0 | 3.0 | 0.00 | 0.07 | 0.00 | 49 | 1016.7 |
| 20260507184405 | 64 | 299 | 1.0 | 5.0 | 0.00 | 0.07 | 0.00 | 50 | 1016.9 |
| 20260507183405 | 64 | 0 | 7.0 | 17.0 | 0.00 | 0.07 | 0.00 | 49 | 1017.1 |
| 20260507182905 | 65 | 11 | 4.0 | 12.0 | 0.00 | 0.07 | 0.00 | 47 | 1017.0 |
| 20260507182404 | 65 | 304 | 6.0 | 12.0 | 0.00 | 0.07 | 0.00 | 47 | 1017.0 |
| 20260507181905 | 65 | 339 | 3.0 | 7.0 | 0.00 | 0.07 | 0.00 | 46 | 1017.1 |
| 20260507181404 | 65 | 299 | 5.0 | 9.0 | 0.00 | 0.07 | 0.00 | 49 | 1017.1 |
| 20260507180904 | 64 | 284 | 6.0 | 12.0 | 0.00 | 0.07 | 0.00 | 49 | 1017.2 |
| 20260507180405 | 64 | 322 | 5.0 | 12.0 | 0.00 | 0.07 | 0.00 | 49 | 1017.2 |
| 20260507175905 | 64 | 12 | 4.0 | 9.0 | 0.00 | 0.07 | 0.00 | 51 | 1017.2 |